Nacogdoches, TX

9:46 AM CDT on October 21, 2017 (GMT -0500)
Mangham Regional

Weather History for KOCH - March, 2013

Change the Weather History Date:

Sunday, March 17, 2013

  Actual Average Record
Temperature  
Mean Temperature 70 °F -  
Max Temperature 80 °F 67 °F 84 °F (2008)
Min Temperature 60 °F 45 °F 32 °F (2005)
Cooling Degree Days 5    
Growing Degree Days 20 (Base 50)    
Moisture  
Dew Point 59 °F    
Average Humidity 72    
Maximum Humidity 88    
Minimum Humidity 47    
Precipitation  
Precipitation 0.00 in - - ()
Sea Level Pressure  
Sea Level Pressure 29.80 in    
Wind  
Wind Speed 10 mph (South)    
Max Wind Speed 14 mph    
Max Gust Speed 20 mph    
Visibility 10 miles    
Events      
Averages and records for this station are not official NWS values.
T = Trace of Precipitation, MM = Missing Value Source: NWS Daily Summary

Daily Weather History Graph

Daily Weather History Graph

Search for Another Location

Airport or City:

Trip Planner

Search our weather history database for the weather conditions in past years. The results will help you decide how hot, cold, wet, or windy it might be!

Date:

Astronomy

Mar. 17, 2013 Rise Set
Actual Time 7:26 AM CDT 7:28 PM CDT
Civil Twilight 7:01 AM CDT 7:52 PM CDT
Nautical Twilight 6:33 AM CDT 8:21 PM CDT
Astronomical Twilight 6:05 AM CDT 8:49 PM CDT
Moon 10:59 AM CDT (3/17) 12:17 AM CDT (3/17)
Length of Visible Light 12h 50m
Length of Day
12h 02m
Waxing Crescent, 31% of the Moon is Illuminated
Mar 17
Waxing Crescent
Mar 19
First Quarter
Mar 27
Full
Apr 2
Last Quarter
Apr 10
New

Hourly Weather History & Observations

Time (CDT) Temp. Heat Index Dew Point Humidity Pressure Visibility Wind Dir Wind Speed Gust Speed Precip Events Conditions
12:15 AM 62.6 °F - 55.4 °F 77% 29.87 in 10.0 mi South 10.4 mph - N/A   Mostly Cloudy
12:35 AM 62.6 °F - 55.4 °F 77% 29.87 in 10.0 mi South 10.4 mph - N/A   Overcast
12:55 AM 62.6 °F - 55.4 °F 77% 29.87 in 10.0 mi South 12.7 mph - N/A   Overcast
1:15 AM 62.6 °F - 55.4 °F 77% 29.87 in 10.0 mi South 10.4 mph - N/A   Overcast
1:35 AM 62.6 °F - 55.4 °F 77% 29.87 in 10.0 mi South 10.4 mph - N/A   Overcast
1:55 AM 62.6 °F - 55.4 °F 77% 29.86 in 10.0 mi South 9.2 mph 16.1 mph N/A   Overcast
2:15 AM 62.6 °F - 55.4 °F 77% 29.86 in 10.0 mi South 9.2 mph 16.1 mph N/A   Overcast
2:35 AM 62.6 °F - 57.2 °F 82% 29.85 in 10.0 mi South 10.4 mph - N/A   Overcast
2:55 AM 62.6 °F - 57.2 °F 82% 29.85 in 10.0 mi South 9.2 mph - N/A   Overcast
3:15 AM 62.6 °F - 55.4 °F 77% 29.84 in 10.0 mi South 8.1 mph - N/A   Overcast
3:35 AM 62.6 °F - 55.4 °F 77% 29.84 in 10.0 mi South 9.2 mph - N/A   Overcast
3:55 AM 62.6 °F - 55.4 °F 77% 29.84 in 10.0 mi South 6.9 mph - N/A   Overcast
4:15 AM 60.8 °F - 55.4 °F 82% 29.84 in 3.0 mi South 6.9 mph - N/A   Overcast
4:35 AM 60.8 °F - 55.4 °F 82% 29.83 in 10.0 mi SSE 8.1 mph - N/A   Overcast
4:55 AM 60.8 °F - 55.4 °F 82% 29.83 in 10.0 mi SSE 8.1 mph - N/A   Overcast
5:15 AM 60.8 °F - 55.4 °F 82% 29.83 in 10.0 mi South 8.1 mph - N/A   Overcast
5:35 AM 60.8 °F - 55.4 °F 82% 29.83 in 10.0 mi SSE 6.9 mph - N/A   Overcast
5:55 AM 60.8 °F - 55.4 °F 82% 29.83 in 10.0 mi South 8.1 mph - N/A   Overcast
6:15 AM 60.8 °F - 55.4 °F 82% 29.84 in 10.0 mi South 9.2 mph - N/A   Overcast
6:35 AM 60.8 °F - 55.4 °F 82% 29.84 in 10.0 mi South 6.9 mph - N/A   Overcast
6:55 AM 60.8 °F - 57.2 °F 88% 29.85 in 10.0 mi South 6.9 mph - N/A   Overcast
7:15 AM 60.8 °F - 57.2 °F 88% 29.86 in 10.0 mi South 5.8 mph - N/A   Overcast
7:35 AM 62.6 °F - 57.2 °F 82% 29.86 in 10.0 mi South 6.9 mph - N/A   Overcast
7:55 AM 62.6 °F - 57.2 °F 82% 29.86 in 10.0 mi South 5.8 mph - N/A   Overcast
8:15 AM 62.6 °F - 57.2 °F 82% 29.86 in 10.0 mi SSE 5.8 mph - N/A   Overcast
8:35 AM 62.6 °F - 57.2 °F 82% 29.86 in 10.0 mi SSE 5.8 mph - N/A   Overcast
8:55 AM 62.6 °F - 57.2 °F 82% 29.86 in 10.0 mi SSE 6.9 mph - N/A   Overcast
9:15 AM 62.6 °F - 57.2 °F 82% 29.86 in 10.0 mi SSE 6.9 mph - N/A   Overcast
9:35 AM 64.4 °F - 59.0 °F 83% 29.86 in 10.0 mi SSE 6.9 mph - N/A   Overcast
9:55 AM 64.4 °F - 59.0 °F 83% 29.87 in 10.0 mi South 9.2 mph - N/A   Overcast
10:15 AM 66.2 °F - 59.0 °F 78% 29.85 in 10.0 mi South 13.8 mph 18.4 mph N/A   Overcast
10:35 AM 68.0 °F - 60.8 °F 78% 29.85 in 10.0 mi South 12.7 mph - N/A   Overcast
10:55 AM 69.8 °F - 60.8 °F 73% 29.86 in 10.0 mi SSW 13.8 mph 19.6 mph N/A   Overcast
11:15 AM 68.0 °F - 60.8 °F 78% 29.86 in 10.0 mi South 9.2 mph 16.1 mph N/A   Overcast
11:35 AM 69.8 °F - 60.8 °F 73% 29.85 in 10.0 mi SSW 11.5 mph - N/A   Overcast
11:55 AM 68.0 °F - 60.8 °F 78% 29.85 in 10.0 mi South 9.2 mph - N/A   Overcast
12:15 PM 69.8 °F - 60.8 °F 73% 29.84 in 10.0 mi South 8.1 mph - N/A   Overcast
12:35 PM 71.6 °F - 62.6 °F 73% 29.84 in 10.0 mi South 5.8 mph - N/A   Mostly Cloudy
12:55 PM 71.6 °F - 60.8 °F 69% 29.83 in 10.0 mi South 6.9 mph - N/A   Mostly Cloudy
1:15 PM 71.6 °F - 60.8 °F 69% 29.82 in 10.0 mi South 8.1 mph - N/A   Overcast
1:35 PM 73.4 °F - 60.8 °F 65% 29.80 in 10.0 mi SSW 10.4 mph - N/A   Mostly Cloudy
1:55 PM 75.2 °F - 60.8 °F 61% 29.79 in 10.0 mi SSW 13.8 mph 19.6 mph N/A   Mostly Cloudy
2:15 PM 75.2 °F - 60.8 °F 61% 29.78 in 10.0 mi SSW 10.4 mph 16.1 mph N/A   Mostly Cloudy
2:35 PM 75.2 °F - 59.0 °F 57% 29.76 in 10.0 mi SW 12.7 mph 19.6 mph N/A   Overcast
2:55 PM 77.0 °F - 60.8 °F 57% 29.75 in 10.0 mi WSW 11.5 mph 16.1 mph N/A   Overcast
3:15 PM 78.8 °F - 60.8 °F 54% 29.73 in 10.0 mi SSW 10.4 mph 17.3 mph N/A   Mostly Cloudy
3:35 PM 78.8 °F - 60.8 °F 54% 29.72 in 10.0 mi SSW 12.7 mph - N/A   Mostly Cloudy
3:55 PM 80.6 °F 81.5 °F 60.8 °F 51% 29.71 in 10.0 mi South 13.8 mph 17.3 mph N/A   Mostly Cloudy
4:15 PM 78.8 °F - 59.0 °F 51% 29.71 in 10.0 mi SW 11.5 mph 19.6 mph N/A   Scattered Clouds
4:35 PM 78.8 °F - 59.0 °F 51% 29.70 in 10.0 mi South 13.8 mph - N/A   Scattered Clouds
4:55 PM 78.8 °F - 59.0 °F 51% 29.70 in 10.0 mi SSW 12.7 mph - N/A   Scattered Clouds
5:15 PM 78.8 °F - 57.2 °F 47% 29.70 in 10.0 mi SSW 10.4 mph - N/A   Scattered Clouds
5:35 PM 78.8 °F - 57.2 °F 47% 29.69 in 10.0 mi SW 10.4 mph - N/A   Scattered Clouds
5:55 PM 78.8 °F - 60.8 °F 54% 29.69 in 10.0 mi SSW 10.4 mph - N/A   Scattered Clouds
6:15 PM 77.0 °F - 60.8 °F 57% 29.69 in 10.0 mi South 10.4 mph - N/A   Scattered Clouds
6:35 PM 77.0 °F - 60.8 °F 57% 29.69 in 10.0 mi South 11.5 mph - N/A   Partly Cloudy
6:55 PM 75.2 °F - 60.8 °F 61% 29.69 in 10.0 mi South 9.2 mph - N/A   Partly Cloudy
7:15 PM 75.2 °F - 60.8 °F 61% 29.69 in 10.0 mi South 9.2 mph 16.1 mph N/A   Clear
7:35 PM 73.4 °F - 60.8 °F 65% 29.70 in 10.0 mi South 11.5 mph - N/A   Scattered Clouds
7:55 PM 73.4 °F - 60.8 °F 65% 29.71 in 10.0 mi South 10.4 mph - N/A   Mostly Cloudy
8:15 PM 71.6 °F - 60.8 °F 69% 29.71 in 10.0 mi South 11.5 mph - N/A   Scattered Clouds
8:35 PM 71.6 °F - 60.8 °F 69% 29.72 in 10.0 mi South 8.1 mph - N/A   Scattered Clouds
8:55 PM 71.6 °F - 60.8 °F 69% 29.72 in 10.0 mi South 8.1 mph - N/A   Scattered Clouds
9:15 PM 71.6 °F - 60.8 °F 69% 29.73 in 10.0 mi South 11.5 mph 17.3 mph N/A   Partly Cloudy
9:35 PM 69.8 °F - 60.8 °F 73% 29.74 in 10.0 mi South 10.4 mph - N/A   Partly Cloudy
9:55 PM 69.8 °F - 60.8 °F 73% 29.74 in 10.0 mi South 11.5 mph - N/A   Clear
10:15 PM 69.8 °F - 60.8 °F 73% 29.74 in 10.0 mi South 11.5 mph - N/A   Clear
10:35 PM 68.0 °F - 60.8 °F 78% 29.75 in 10.0 mi South 9.2 mph 17.3 mph N/A   Scattered Clouds
10:55 PM 68.0 °F - 60.8 °F 78% 29.75 in 10.0 mi South 9.2 mph - N/A   Overcast
11:15 PM 68.0 °F - 60.8 °F 78% 29.76 in 10.0 mi South 8.1 mph - N/A   Overcast
11:35 PM 68.0 °F - 60.8 °F 78% 29.74 in 10.0 mi South 12.7 mph 17.3 mph N/A   Overcast
11:55 PM 66.2 °F - 60.8 °F 83% 29.74 in 10.0 mi South 10.4 mph 17.3 mph N/A   Mostly Cloudy